TimeIST,TemperatureF,Dew PointF,Humidity,Sea Level PressureIn,VisibilityMPH,Wind Direction,Wind SpeedMPH,Gust SpeedMPH,PrecipitationIn,Events,Conditions,WindDirDegrees,DateUTC
12:10 AM,77.0,62.6,61,29.92,1.1,Calm,Calm,-,N/A,,Smoke,0,2013-02-02 18:40:00
12:40 AM,77.0,64.4,65,29.89,1.0,Calm,Calm,-,N/A,,Smoke,0,2013-02-02 19:10:00
1:40 AM,75.2,64.4,69,29.89,0.7,Calm,Calm,-,N/A,,Smoke,0,2013-02-02 20:10:00
2:30 AM,71,65,75,29.88,1,Calm,Calm,,,,Haze,,2013-02-02 21:00:00
2:40 AM,75.2,64.4,69,29.89,0.9,Calm,Calm,-,N/A,,Smoke,0,2013-02-02 21:10:00
3:10 AM,77.0,64.4,65,29.86,1.0,SSW,5.8,-,N/A,,Smoke,210,2013-02-02 21:40:00
3:40 AM,75.2,64.4,69,29.86,1.0,West,5.8,-,N/A,,Smoke,280,2013-02-02 22:10:00
4:10 AM,75.2,64.4,69,29.86,1.1,NW,3.5,-,N/A,,Smoke,310,2013-02-02 22:40:00
4:40 AM,75.2,64.4,69,29.86,1.3,North,4.6,-,N/A,,Smoke,350,2013-02-02 23:10:00
5:10 AM,75.2,62.6,65,29.86,1.2,Variable,2.3,-,N/A,,Smoke,0,2013-02-02 23:40:00
5:30 AM,71,64,71,29.87,1,Calm,Calm,,,,Haze,,2013-02-03 00:00:00
5:40 AM,75.2,62.6,65,29.86,1.2,NNW,4.6,-,N/A,,Smoke,340,2013-02-03 00:10:00
6:10 AM,75.2,62.6,65,29.89,1.4,NW,3.5,-,N/A,,Smoke,310,2013-02-03 00:40:00
6:40 AM,75.2,62.6,65,29.89,1.4,WNW,3.5,-,N/A,,Smoke,300,2013-02-03 01:10:00
7:10 AM,75.2,62.6,65,29.89,1.2,North,3.5,-,N/A,,Smoke,350,2013-02-03 01:40:00
7:40 AM,75.2,60.8,61,29.92,1.1,North,3.5,-,N/A,,Smoke,10,2013-02-03 02:10:00
8:10 AM,75.2,59.0,57,29.92,1.1,Calm,Calm,-,N/A,,Smoke,0,2013-02-03 02:40:00
8:30 AM,70,63,71,29.93,1,Calm,Calm,,,,Haze,,2013-02-03 03:00:00
8:40 AM,75.2,60.8,61,29.92,1.1,Calm,Calm,-,N/A,,Smoke,0,2013-02-03 03:10:00
9:40 AM,78.8,62.6,57,29.95,0.8,Calm,Calm,-,N/A,,Smoke,0,2013-02-03 04:10:00
10:40 AM,80.6,59.0,48,29.95,1.4,WSW,5.8,-,N/A,,Smoke,240,2013-02-03 05:10:00
11:10 AM,82.4,60.8,48,29.95,1.6,SW,4.6,-,N/A,,Smoke,220,2013-02-03 05:40:00
11:30 AM,83,60,36,29.95,1,NW,5.8,,,,Smoke,320,2013-02-03 06:00:00
12:10 PM,82.4,68.0,62,29.92,1.9,West,8.1,-,N/A,,Smoke,280,2013-02-03 06:40:00
12:40 PM,82.4,69.8,66,29.92,1.9,West,9.2,-,N/A,,Smoke,270,2013-02-03 07:10:00
1:10 PM,82.4,66.2,58,29.89,1.9,West,9.2,-,N/A,,Smoke,270,2013-02-03 07:40:00
1:40 PM,82.4,66.2,58,29.89,1.9,West,9.2,-,N/A,,Smoke,260,2013-02-03 08:10:00
2:10 PM,82.4,69.8,66,29.86,1.9,WNW,11.5,-,N/A,,Smoke,300,2013-02-03 08:40:00
2:30 PM,84,69,52,29.86,1,WNW,5.8,,,,Smoke,290,2013-02-03 09:00:00
2:40 PM,82.4,68.0,62,29.86,1.9,West,11.5,-,N/A,,Smoke,260,2013-02-03 09:10:00
3:10 PM,82.4,69.8,66,29.83,1.9,West,10.4,-,N/A,,Smoke,260,2013-02-03 09:40:00
3:40 PM,82.4,68.0,62,29.83,1.9,West,9.2,-,N/A,,Smoke,270,2013-02-03 10:10:00
4:10 PM,82.4,68.0,62,29.83,1.9,West,9.2,-,N/A,,Smoke,280,2013-02-03 10:40:00
4:40 PM,82.4,66.2,58,29.83,1.9,West,8.1,-,N/A,,Smoke,280,2013-02-03 11:10:00
5:10 PM,80.6,64.4,58,29.86,1.9,West,9.2,-,N/A,,Smoke,280,2013-02-03 11:40:00
5:30 PM,81,64,47,29.85,1,NW,6.9,,,,Smoke,320,2013-02-03 12:00:00
5:40 PM,80.6,64.4,58,29.86,1.9,WNW,9.2,-,N/A,,Smoke,300,2013-02-03 12:10:00
6:10 PM,78.8,66.2,65,29.86,1.9,West,9.2,-,N/A,,Smoke,280,2013-02-03 12:40:00
6:40 PM,78.8,66.2,65,29.89,1.9,WNW,6.9,-,N/A,,Smoke,290,2013-02-03 13:10:00
7:10 PM,77.0,68.0,74,29.89,1.9,WNW,6.9,-,N/A,,Haze,300,2013-02-03 13:40:00
7:40 PM,77.0,68.0,74,29.89,1.7,WNW,5.8,-,N/A,,Haze,300,2013-02-03 14:10:00
8:10 PM,77.0,69.8,78,29.92,1.7,NW,6.9,-,N/A,,Haze,320,2013-02-03 14:40:00
8:30 PM,76,69,73,29.92,1,WNW,4.6,,,,Haze,290,2013-02-03 15:00:00
8:40 PM,77.0,69.8,78,29.92,1.7,WNW,9.2,-,N/A,,Haze,300,2013-02-03 15:10:00
9:40 PM,77.0,69.8,78,29.95,2.2,NW,6.9,-,N/A,,Smoke,320,2013-02-03 16:10:00
10:40 PM,77.0,71.6,83,29.95,1.9,NW,5.8,-,N/A,,Smoke,320,2013-02-03 17:10:00
11:10 PM,77.0,71.6,83,29.95,1.7,North,5.8,-,N/A,,Smoke,10,2013-02-03 17:40:00
11:30 PM,76,71,79,29.95,1,Calm,Calm,,,,Haze,,2013-02-03 18:00:00
11:40 PM,77.0,71.6,83,29.95,1.7,North,5.8,-,N/A,,Smoke,350,2013-02-03 18:10:00